Regional Weather Roundup
Issued by NWS

Home | Current Version | Previous Version | Graphics & Text | Print | Product List | Glossary On
Versions: 1 2 3 4 5 6 7 8 9 10 11 12 13 14 15 16 17 18 19 20 21 22 23 24 25 26 27 28 29 30 31 32 33 34 35 36 37 38 39 40 41 42 43 44 45 46 47 48 49 50
000
ASUS45 KBOU 140707
RWRCO

WEATHER ROUNDUP FOR COLORADO
NATIONAL WEATHER SERVICE DENVER/BOULDER CO
100 AM MDT SUN SEP 14 2014

NOTE: "FAIR" INDICATES FEW OR NO CLOUDS BELOW 12000 FEET WITH NO
SIGNIFICANT WEATHER AND/OR OBSTRUCTIONS TO VISIBILITY.

COZ001>005-013-030-031-140800-
...NORTHWEST COLORADO...

CITY           SKY/WX    TMP DP  RH WIND       PRES   REMARKS
CRAIG          PTCLDY    48  38  68 NE3       30.18S
HAYDEN         PTCLDY    52  32  46 CALM      30.19S
MEEKER         CLEAR     47  36  65 CALM      30.21R
MOUNT WERNER   NOT AVBL
STEAMBOAT SPGS MOCLDY    50  34  55 CALM      30.22S
WALDEN         CLEAR     39  28  65 SE5       30.27S
$$

COZ006>008-011-140800-
...WEST CENTRAL VALLEYS...

CITY           SKY/WX    TMP DP  RH WIND       PRES   REMARKS
GRAND JUNCTION CLEAR     61  35  37 SE13      30.09S
MONTROSE       CLEAR     59  34  39 SE13      30.19S
EAGLE          CLEAR     46  36  66 E3        30.26S
RIFLE          CLEAR     50  37  61 S3        30.17R
DELTA          CLEAR     56  40  53 E5        30.16S
NUCLA          CLEAR     55  34  44 SE9       30.23R
$$

COZ017>023-064>068-140800-
...SOUTHWEST COLORADO...

CITY           SKY/WX    TMP DP  RH WIND       PRES   REMARKS
DURANGO        CLEAR     48  34  58 N5        30.27R
CORTEZ         CLEAR     48  39  71 E5        30.21R
PAGOSA SPRINGS NOT AVBL
TELLURIDE      CLEAR     46  34  61 E7        30.41S
WOLF CREEK PAS CLEAR     39  25  56 SW18G24   30.58S
$$

COZ009-010-012-014-032>034-037-058>063-140800-
...CENTRAL COLORADO...

CITY           SKY/WX    TMP DP  RH WIND       PRES   REMARKS
ASPEN          CLEAR     45  30  55 SW8       30.31S
BUENA VISTA    CLEAR     42  27  55 W5        30.34S
COPPER MTN     CLEAR     46  18  31 SW12G25   30.55S
BERTHOUD PASS  FAIR      37  36  93 W18G32    30.56S
COTTONWOOD PAS CLEAR     54  19  26 CALM      30.44S
GUNNISON       CLEAR     45  28  53 N6        30.35F
KREMMLING      PTCLDY    39  30  70 CALM      30.29S
LEADVILLE      CLEAR     35  21  56 NE3       30.43S
MONARCH PASS   CLEAR     43  21  42 W17       30.66S
SALIDA         CLEAR     51  29  42 SW6       30.39R
SUNLIGHT       CLEAR     45  25  45 CALM      30.49F
WILKERSON PASS NOT AVBL
$$

COZ069>075-140800-
...SAN LUIS VALLEY/SANGRE DE CRISTO MOUNTAINS...

CITY           SKY/WX    TMP DP  RH WIND       PRES   REMARKS
ALAMOSA        PTCLDY    46  37  71 S5        30.31R
LA VETA PASS   NOT AVBL
SAGUACHE       NOT AVBL
$$

COZ035-036-038>040-140800-
...NORTHERN COLORADO FRONT RANGE...

CITY           SKY/WX    TMP DP  RH WIND       PRES   REMARKS
DENVER INTL AP CLEAR     52  42  69 SW12      30.15F
DMNS CITY PARK   N/A     52  42  70 S5        30.15F
AURORA         PTCLDY    50  42  73 S10       30.17F
FRONT RANGE AP CLEAR     52  43  71 S7        30.16F
ERIE MUNI ARPT CLEAR     49  43  80 CALM      30.14F
BOULDER MUN AP CLEAR     54  39  58 S6        30.14S
CENTENNIAL     PTCLDY    50  42  74 S8        30.18F
BROOMFIELD     CLEAR     54  41  62 CALM      30.16F
FORT COLLINS   CLEAR     50  43  76 N7        30.14F
LONGMONT       CLEAR     50  42  74 W3        30.15S
$$

COZ041-046-047-076>085-087-088-140800-
...PIKES PEAK/PALMER DIVIDE AND SOUTHERN FOOTHILLS...

CITY           SKY/WX    TMP DP  RH WIND       PRES   REMARKS
COLO. SPRINGS  CLEAR     48  38  68 N7        30.23F
A. F. ACADEMY  MOCLDY    43  36  74 N10       30.24F
ELLICOTT       NOT AVBL
FALCON         PTCLDY    44  35  69 CALM      30.26F
FORT CARSON    CLEAR     48  36  62 N9        30.21S
LIMON          CLEAR     42  40  92 CALM      30.19F
MONUMENT HILL  CLEAR     45  32  61 SW6       30.24F
TRINIDAD       PTCLDY    58  44  60 W5        30.19S
$$

COZ042>045-048>051-090-091-140800-
...NORTHEAST COLORADO...

CITY           SKY/WX    TMP DP  RH WIND       PRES   REMARKS
GREELEY ARPT   CLEAR     45  37  76 N5        30.12F
AKRON          CLEAR     51  48  89 S10       30.15F
BURLINGTON     CLEAR     49  47  93 S10       30.16F
WRAY           CLEAR    N/A N/A N/A CALM      30.15F
STERLING       CLEAR     52  50  93 CALM      30.12F
HOLYOKE        CLEAR     43  41  93 E3        30.16F
FORT MORGAN    CLEAR     49  46  88 SE5       30.14F
$$

COZ086-089-092>099-140800-
...SOUTHEAST COLORADO...

CITY           SKY/WX    TMP DP  RH WIND       PRES   REMARKS
PUEBLO         PTCLDY    50  40  68 W8        30.15F
LA JUNTA       CLEAR     54  52  93 SE6       30.11R
LAMAR          CLEAR     52  50  93 E6        30.11S FOG
SPRINGFIELD      N/A     53  52  96 S6        30.14F
$$


USA.gov is the U.S. government's official web portal to all federal, state and local government web resources and services.